カタログに戻る

STARLINK-37198

運用中通信SSO
NORAD 68386·PAYLOAD·🇺🇸 United States

打ち上げ Mar 26, 2026 から Vandenberg Space Force Base

Loading…

次のパス (今後24時間)

TLE

最新Source: CelesTrak SupGP

元期: Sep 15, 2026, 03:41 UTC

1 68386C 26063G   26258.15395833 -.00022514  00000+0 -69879-3 0  2583
2 68386  97.2858  39.1759 0000988  94.1419 310.2528 15.33455935    14

AllMySatでSTARLINK-37198をリアルタイム追跡

Download on the App Store